Location: Joplin, MO
(37.0842°N, 94.5133°W)
Time: 12:43:08
(UTC+02:00)

Tiros 1 - Visible Passes

Search period start: 30 March 2023 00:00
Search period end: 09 April 2023 00:00
Orbit: 627 x 662 km, 48.4° (Epoch: 29 March)

Date Brightness Start Highest point End Pass type
(mag) Time Alt. Az. Time Alt. Az. Time Alt. Az.
30 Mar 9.7 10:52:07 18° ENE 10:52:07 18° ENE 10:53:30 10° ENE visible
30 Mar 8.0 12:29:44 31° WNW 12:31:07 39° NNW 12:35:38 10° NE visible
31 Mar 8.8 11:16:07 33° NE 11:16:07 33° NE 11:18:49 10° NE visible
31 Mar 8.7 12:53:43 15° WNW 12:56:43 26° NNW 13:00:46 10° NE visible
01 Apr 8.2 11:40:03 39° N 11:40:03 39° N 11:43:55 10° NE visible
01 Apr 9.1 13:18:46 10° NW 13:22:27 21° N 13:26:08 10° NE visible
02 Apr 10.0 10:26:22 14° NE 10:26:22 14° NE 10:27:04 10° NE visible
02 Apr 8.6 12:03:58 25° NW 12:04:55 27° NNW 12:09:01 10° NE visible
03 Apr 9.4 10:50:14 23° NE 10:50:14 23° NE 10:52:10 10° NE visible
03 Apr 9.1 12:27:50 14° NW 12:30:37 22° N 12:34:20 10° NE visible
04 Apr 9.0 11:14:06 26° N 11:14:06 26° N 11:17:16 10° NE visible
04 Apr 9.2 12:52:46 10° NW 12:56:23 21° N 13:00:02 10° NE visible
05 Apr 10.3 10:00:20 10° NE 10:00:20 10° NE 10:00:25 10° NE visible
05 Apr 9.0 11:37:56 21° NNW 11:38:46 22° N 11:42:32 10° NE visible
05 Apr 9.1 13:18:13 10° NW 13:22:08 24° NNE 13:26:03 10° ENE visible
06 Apr 9.9 10:24:11 17° NNE 10:24:11 17° NNE 10:25:29 10° NE visible
06 Apr 9.3 12:01:46 13° NW 12:04:32 21° N 12:08:09 10° NE visible
07 Apr 9.4 10:48:01 21° N 10:48:01 21° N 10:50:42 10° NE visible
07 Apr 9.2 12:26:25 10° NW 12:30:17 23° N 12:34:08 10° ENE visible
08 Apr 9.2 11:11:53 20° NNW 11:12:40 21° N 11:16:16 10° NE visible
08 Apr 8.8 12:51:36 10° NW 12:55:54 32° NNE 13:00:12 10° E visible
